Location: Unspecified
(0.0000°N, 0.0000°E)
Time: 16:00:18
(UTC+01:00)

NATO 3D Rocket - Visible Passes

Search period start: 02 March 2015 00:00
Search period end: 12 March 2015 00:00
Orbit: 670 x 2297 km, 21.5° (Epoch: 28 February)

Date Brightness Start Highest point End Pass type
(mag) Time Alt. Az. Time Alt. Az. Time Alt. Az.
02 Mar 6.0 05:00:15 12° NNE 05:00:15 12° NNE 05:00:51 10° NNE visible
02 Mar 6.7 19:32:04 10° SW 19:41:19 23° S 19:48:41 10° SE visible
02 Mar 6.3 21:41:27 10° SW 21:48:01 19° S 21:48:13 19° S visible
03 Mar 5.7 06:03:41 10° NNW 06:04:28 10° N 06:05:13 10° N visible
03 Mar 6.4 20:41:51 10° SW 20:49:47 21° S 20:54:44 14° SE visible
03 Mar 6.9 22:48:48 10° SW 22:50:17 14° SW 22:50:17 14° SW visible
04 Mar 6.7 19:41:52 10° SW 19:51:12 23° S 19:58:44 10° SE visible
04 Mar 6.2 21:49:59 10° SW 21:56:48 25° S 21:56:48 25° S visible
05 Mar 6.1 20:50:44 10° SW 20:59:43 25° S 21:03:18 20° SE visible
05 Mar 6.9 22:57:10 10° SW 22:58:51 15° SW 22:58:51 15° SW visible
06 Mar 6.6 19:51:09 10° SW 20:01:07 26° S 20:09:08 10° SE visible
06 Mar 6.0 21:58:24 10° SW 22:05:22 31° SSW 22:05:22 31° SSW visible
07 Mar 5.8 20:59:19 10° SW 21:09:33 32° S 21:11:54 29° SE visible
07 Mar 7.0 23:05:40 10° WSW 23:07:26 16° SW 23:07:26 16° SW visible
08 Mar 6.4 20:00:01 10° SW 20:10:57 31° S 20:18:26 14° ESE visible
08 Mar 5.9 22:06:47 10° SW 22:13:59 37° SSW 22:13:59 37° SSW visible
09 Mar 5.5 21:07:45 10° SW 21:19:12 43° SSE 21:20:32 42° SSE visible
09 Mar 7.0 23:14:21 10° WSW 23:16:05 16° WSW 23:16:05 16° WSW visible
10 Mar 6.1 20:08:36 10° SW 20:20:38 39° SSE 20:27:07 21° ESE visible
10 Mar 5.9 22:15:18 10° WSW 22:22:40 41° SW 22:22:40 41° SW visible
11 Mar 6.5 19:09:29 10° SW 19:21:43 36° S 19:32:02 10° ESE visible
11 Mar 5.2 21:16:11 10° WSW 21:28:38 59° SSE 21:29:16 58° SSE visible
11 Mar 7.1 23:23:20 10° WSW 23:24:50 15° WSW 23:24:50 15° WSW visible
